Simultaneous Nadir Overpasses (SNOs) Predictions

Prediction of SNOs between LANDSAT-8 and METOP-A Satellite Orbit:

Table of predicted SNOs for the next 14.0 days since TLE Epoch: 8/11/2017
Index Date (LANDSAT-8) Time (LANDSAT-8) Lat,Lon (LANDSAT-8) SZA (LANDSAT-8 ) Date (METOP-A) Time (METOP-A) Lat,Lon (METOP-A) SZA (METOP-A ) Distance(km) Time Diff (sec)
1 08/13/2017 03:17:59 -81.23, -7.79 111.25 08/13/2017 03:17:35 -81.22, -7.95 111.28 2.75 24
2 08/13/2017 04:07:25 81.23, 159.95 68.78 08/13/2017 04:08:14 81.24, 159.87 68.80 1.30 49
3 08/15/2017 22:52:15 -81.23, 58.69 110.36 08/15/2017 22:51:55 -81.23, 58.63 110.38 1.16 20
4 08/15/2017 23:41:40 81.26,-133.22 69.72 08/15/2017 23:42:33 81.25,-133.19 69.74 0.78 53
5 08/18/2017 18:26:30 -81.23, 125.16 109.44 08/18/2017 18:26:14 -81.23, 125.19 109.45 0.66 16
6 08/18/2017 19:15:55 81.26, -66.79 70.63 08/18/2017 19:16:52 81.25, -66.64 70.67 2.42 57
7 08/21/2017 14:00:46 -81.23,-168.41 108.50 08/21/2017 14:00:34 -81.24,-168.26 108.49 2.73 12
8 08/21/2017 14:50:11 81.25, -0.38 71.57 08/21/2017 14:51:13 81.25, -0.50 71.58 2.12 62
9 08/24/2017 09:35:02 -81.23,-102.01 107.54 08/24/2017 09:34:55 -81.23,-102.11 107.55 1.62 7




NCC Satellite Simultaneous Nadir Overpasses (SNOs) Prediction Service
